contact:dominique.lefevre@mio.osupytheas.fr, maurice.libes@osupytheas.fr, didier.mallarino@osupytheas.fr
Project:EMSO http://www.emso-fr.org/EMSO-France
Depth: 2436.0 m
Title:EMSO Ligure Ouest : Data MII capteur MICROCAT
DateTime_Computer,Latitude,Longitude,Temperature,Conductivity,Pressure,DateTime_Instrument
DateTime_Computer,Latitude,Longitude,degC,S m-1,dbar,DateTime_Instrument
2021-09-12T00:02:08Z,42.805,6.029,13.3003,4.60034,2470.46,2021-9-12T02:03:28Z
2021-09-12T00:05:11Z,42.805,6.029,13.3000,4.60033,2470.437,2021-9-12T02:06:32Z
2021-09-12T00:08:14Z,42.805,6.029,13.3002,4.60037,2470.45,2021-9-12T02:09:35Z
2021-09-12T00:11:17Z,42.805,6.029,13.3000,4.60035,2470.437,2021-9-12T02:12:38Z
2021-09-12T00:14:20Z,42.805,6.029,13.3003,4.60028,2470.474,2021-9-12T02:15:41Z
2021-09-12T00:17:23Z,42.805,6.029,13.3003,4.60033,2470.437,2021-9-12T02:18:44Z
2021-09-12T00:20:27Z,42.805,6.029,13.3009,4.60038,2470.437,2021-9-12T02:21:47Z
2021-09-12T00:23:30Z,42.805,6.029,13.3004,4.60033,2470.437,2021-9-12T02:24:50Z
2021-09-12T00:26:33Z,42.805,6.029,13.3003,4.60031,2470.437,2021-9-12T02:27:53Z
2021-09-12T00:29:36Z,42.805,6.029,13.3005,4.60031,2470.483,2021-9-12T02:30:57Z
2021-09-12T00:32:39Z,42.805,6.029,13.3000,4.60056,2470.437,2021-9-12T02:34:00Z
2021-09-12T00:35:42Z,42.805,6.029,13.3005,4.60039,2470.427,2021-9-12T02:37:03Z
2021-09-12T00:38:45Z,42.805,6.029,13.3011,4.60045,2470.437,2021-9-12T02:40:06Z
2021-09-12T00:41:48Z,42.805,6.029,13.3006,4.60036,2470.427,2021-9-12T02:43:09Z
2021-09-12T00:44:51Z,42.805,6.029,13.3004,4.60029,2470.45,2021-9-12T02:46:12Z
2021-09-12T00:47:55Z,42.805,6.029,13.2998,4.60026,2470.413,2021-9-12T02:49:15Z
2021-09-12T00:50:58Z,42.805,6.029,13.3007,4.60042,2470.413,2021-9-12T02:52:18Z
2021-09-12T00:54:01Z,42.805,6.029,13.3001,4.60038,2470.413,2021-9-12T02:55:22Z
2021-09-12T00:57:04Z,42.805,6.029,13.3004,4.60037,2470.45,2021-9-12T02:58:25Z
2021-09-12T01:00:07Z,42.805,6.029,13.2998,4.60039,2470.427,2021-9-12T03:01:28Z
2021-09-12T01:03:10Z,42.805,6.029,13.3002,4.60036,2470.404,2021-9-12T03:04:31Z
2021-09-12T01:06:13Z,42.805,6.029,13.3003,4.60031,2470.45,2021-9-12T03:07:34Z
2021-09-12T01:09:16Z,42.805,6.029,13.3004,4.60046,2470.437,2021-9-12T03:10:37Z
2021-09-12T01:12:20Z,42.805,6.029,13.3002,4.60032,2470.427,2021-9-12T03:13:40Z
2021-09-12T01:15:23Z,42.805,6.029,13.3000,4.60032,2470.413,2021-9-12T03:16:43Z
2021-09-12T01:18:26Z,42.805,6.029,13.3008,4.60031,2470.427,2021-9-12T03:19:47Z
2021-09-12T01:21:29Z,42.805,6.029,13.3000,4.60033,2470.437,2021-9-12T03:22:50Z
2021-09-12T01:24:32Z,42.805,6.029,13.3005,4.60044,2470.404,2021-9-12T03:25:53Z
2021-09-12T01:27:35Z,42.805,6.029,13.3000,4.60042,2470.427,2021-9-12T03:28:56Z
2021-09-12T01:30:38Z,42.805,6.029,13.3009,4.60046,2470.427,2021-9-12T03:31:59Z
2021-09-12T01:33:41Z,42.805,6.029,13.2999,4.60031,2470.404,2021-9-12T03:35:02Z
2021-09-12T01:36:45Z,42.805,6.029,13.3004,4.60050,2470.39,2021-9-12T03:38:05Z
2021-09-12T01:39:48Z,42.805,6.029,13.3006,4.60053,2470.404,2021-9-12T03:41:08Z
2021-09-12T01:42:51Z,42.805,6.029,13.3004,4.60032,2470.404,2021-9-12T03:44:12Z
2021-09-12T01:45:54Z,42.805,6.029,13.3002,4.60047,2470.427,2021-9-12T03:47:15Z
2021-09-12T01:48:57Z,42.805,6.029,13.3004,4.60042,2470.38,2021-9-12T03:50:18Z
2021-09-12T01:52:00Z,42.805,6.029,13.3004,4.60045,2470.413,2021-9-12T03:53:21Z
2021-09-12T01:55:03Z,42.805,6.029,13.2998,4.60046,2470.39,2021-9-12T03:56:24Z
2021-09-12T01:58:06Z,42.805,6.029,13.3011,4.60061,2470.404,2021-9-12T03:59:27Z
2021-09-12T02:01:10Z,42.805,6.029,13.3007,4.60054,2470.343,2021-9-12T04:02:30Z
2021-09-12T02:04:13Z,42.805,6.029,13.3012,4.60047,2470.343,2021-9-12T04:05:33Z
2021-09-12T02:07:16Z,42.805,6.029,13.3006,4.60038,2470.366,2021-9-12T04:08:37Z
2021-09-12T02:10:19Z,42.805,6.029,13.3007,4.60057,2470.366,2021-9-12T04:11:40Z
2021-09-12T02:13:22Z,42.805,6.029,13.3002,4.60030,2470.38,2021-9-12T04:14:43Z
2021-09-12T02:16:25Z,42.805,6.029,13.3006,4.60061,2470.39,2021-9-12T04:17:46Z
2021-09-12T02:19:28Z,42.805,6.029,13.3004,4.60046,2470.33,2021-9-12T04:20:49Z
2021-09-12T02:22:31Z,42.805,6.029,13.3011,4.60058,2470.366,2021-9-12T04:23:52Z
2021-09-12T02:25:35Z,42.805,6.029,13.3004,4.60038,2470.343,2021-9-12T04:26:55Z
2021-09-12T02:28:38Z,42.805,6.029,13.3007,4.60062,2470.357,2021-9-12T04:29:58Z
2021-09-12T02:31:41Z,42.805,6.029,13.3011,4.60069,2470.427,2021-9-12T04:33:02Z
2021-09-12T02:34:44Z,42.805,6.029,13.3009,4.60058,2470.39,2021-9-12T04:36:05Z
2021-09-12T02:37:47Z,42.805,6.029,13.3005,4.60072,2470.413,2021-9-12T04:39:08Z
2021-09-12T02:40:50Z,42.805,6.029,13.3012,4.60049,2470.38,2021-9-12T04:42:11Z
2021-09-12T02:43:53Z,42.805,6.029,13.3009,4.60074,2470.38,2021-9-12T04:45:14Z
2021-09-12T02:46:56Z,42.805,6.029,13.3001,4.60065,2470.39,2021-9-12T04:48:17Z
2021-09-12T02:50:00Z,42.805,6.029,13.2993,4.60052,2470.357,2021-9-12T04:51:20Z
2021-09-12T02:53:03Z,42.805,6.029,13.3012,4.60067,2470.334,2021-9-12T04:54:23Z
2021-09-12T02:56:06Z,42.805,6.029,13.3012,4.60067,2470.343,2021-9-12T04:57:27Z
2021-09-12T02:59:09Z,42.805,6.029,13.3004,4.60064,2470.357,2021-9-12T05:00:30Z
2021-09-12T03:02:12Z,42.805,6.029,13.3014,4.60061,2470.366,2021-9-12T05:03:33Z
2021-09-12T03:05:15Z,42.805,6.029,13.3008,4.60054,2470.39,2021-9-12T05:06:36Z
2021-09-12T03:08:18Z,42.805,6.029,13.3006,4.60066,2470.343,2021-9-12T05:09:39Z
2021-09-12T03:11:21Z,42.805,6.029,13.3006,4.60035,2470.343,2021-9-12T05:12:42Z
2021-09-12T03:14:25Z,42.805,6.029,13.3001,4.60059,2470.32,2021-9-12T05:15:45Z
2021-09-12T03:17:28Z,42.805,6.029,13.3009,4.60059,2470.32,2021-9-12T05:18:48Z
2021-09-12T03:20:31Z,42.805,6.029,13.3014,4.60061,2470.38,2021-9-12T05:21:52Z
2021-09-12T03:23:34Z,42.805,6.029,13.3011,4.60064,2470.357,2021-9-12T05:24:55Z
2021-09-12T03:26:37Z,42.805,6.029,13.3006,4.60057,2470.357,2021-9-12T05:27:58Z
2021-09-12T03:29:40Z,42.805,6.029,13.3004,4.60058,2470.32,2021-9-12T05:31:01Z
2021-09-12T03:32:43Z,42.805,6.029,13.3006,4.60044,2470.32,2021-9-12T05:34:04Z
2021-09-12T03:35:46Z,42.805,6.029,13.3009,4.60060,2470.343,2021-9-12T05:37:07Z
2021-09-12T03:38:50Z,42.805,6.029,13.3010,4.60066,2470.33,2021-9-12T05:40:10Z
2021-09-12T03:41:53Z,42.805,6.029,13.3013,4.60048,2470.343,2021-9-12T05:43:13Z
2021-09-12T03:44:56Z,42.805,6.029,13.3012,4.60046,2470.31,2021-9-12T05:46:17Z
2021-09-12T03:47:59Z,42.805,6.029,13.3011,4.60051,2470.32,2021-9-12T05:49:20Z
2021-09-12T03:51:02Z,42.805,6.029,13.3014,4.60075,2470.343,2021-9-12T05:52:23Z
2021-09-12T03:54:05Z,42.805,6.029,13.3011,4.60068,2470.32,2021-9-12T05:55:26Z
2021-09-12T03:57:08Z,42.805,6.029,13.3008,4.60056,2470.32,2021-9-12T05:58:29Z
2021-09-12T04:00:11Z,42.805,6.029,13.3011,4.60067,2470.343,2021-9-12T06:01:32Z
2021-09-12T04:03:15Z,42.805,6.029,13.3011,4.60056,2470.32,2021-9-12T06:04:35Z
2021-09-12T04:06:18Z,42.805,6.029,13.3022,4.60058,2470.31,2021-9-12T06:07:38Z
2021-09-12T04:09:21Z,42.805,6.029,13.3014,4.60064,2470.32,2021-9-12T06:10:42Z
2021-09-12T04:12:24Z,42.805,6.029,13.3018,4.60068,2470.334,2021-9-12T06:13:45Z
2021-09-12T04:15:27Z,42.805,6.029,13.3013,4.60069,2470.334,2021-9-12T06:16:48Z
2021-09-12T04:18:30Z,42.805,6.029,13.3009,4.60058,2470.334,2021-9-12T06:19:51Z
2021-09-12T04:21:33Z,42.805,6.029,13.3015,4.60075,2470.32,2021-9-12T06:22:54Z
2021-09-12T04:24:36Z,42.805,6.029,13.3008,4.60043,2470.334,2021-9-12T06:25:57Z
2021-09-12T04:27:40Z,42.805,6.029,13.3004,4.60042,2470.31,2021-9-12T06:29:00Z
2021-09-12T04:30:43Z,42.805,6.029,13.3004,4.60061,2470.31,2021-9-12T06:32:03Z
2021-09-12T04:33:46Z,42.805,6.029,13.3009,4.60076,2470.334,2021-9-12T06:35:07Z
2021-09-12T04:36:49Z,42.805,6.029,13.3014,4.60060,2470.31,2021-9-12T06:38:10Z
2021-09-12T04:39:52Z,42.805,6.029,13.3006,4.60040,2470.32,2021-9-12T06:41:13Z
2021-09-12T04:42:55Z,42.805,6.029,13.3006,4.60053,2470.297,2021-9-12T06:44:16Z
2021-09-12T04:45:58Z,42.805,6.029,13.3011,4.60067,2470.357,2021-9-12T06:47:19Z
2021-09-12T04:49:01Z,42.805,6.029,13.3003,4.60057,2470.297,2021-9-12T06:50:22Z
2021-09-12T04:52:05Z,42.805,6.029,13.3020,4.60074,2470.297,2021-9-12T06:53:25Z
2021-09-12T04:55:08Z,42.805,6.029,13.3008,4.60073,2470.32,2021-9-12T06:56:28Z
2021-09-12T04:58:11Z,42.805,6.029,13.3014,4.60050,2470.31,2021-9-12T06:59:31Z
2021-09-12T05:01:14Z,42.805,6.029,13.3021,4.60074,2470.334,2021-9-12T07:02:35Z
2021-09-12T05:04:17Z,42.805,6.029,13.3007,4.60067,2470.297,2021-9-12T07:05:38Z
2021-09-12T05:07:20Z,42.805,6.029,13.3000,4.60058,2470.297,2021-9-12T07:08:41Z
2021-09-12T05:10:23Z,42.805,6.029,13.3019,4.60044,2470.31,2021-9-12T07:11:44Z
2021-09-12T05:13:26Z,42.805,6.029,13.3013,4.60057,2470.334,2021-9-12T07:14:47Z
2021-09-12T05:16:30Z,42.805,6.029,13.3011,4.60038,2470.334,2021-9-12T07:17:50Z
2021-09-12T05:19:33Z,42.805,6.029,13.3005,4.60050,2470.32,2021-9-12T07:20:53Z
2021-09-12T05:22:36Z,42.805,6.029,13.3016,4.60052,2470.343,2021-9-12T07:23:56Z
2021-09-12T05:25:39Z,42.805,6.029,13.3008,4.60054,2470.334,2021-9-12T07:27:00Z
2021-09-12T05:28:42Z,42.805,6.029,13.3005,4.60052,2470.32,2021-9-12T07:30:03Z
2021-09-12T05:31:45Z,42.805,6.029,13.3011,4.60062,2470.32,2021-9-12T07:33:06Z
2021-09-12T05:34:48Z,42.805,6.029,13.3013,4.60048,2470.297,2021-9-12T07:36:09Z
2021-09-12T05:37:51Z,42.805,6.029,13.3027,4.60055,2470.32,2021-9-12T07:39:12Z
2021-09-12T05:40:54Z,42.805,6.029,13.3026,4.60048,2470.32,2021-9-12T07:42:15Z
2021-09-12T05:43:58Z,42.805,6.029,13.3015,4.60066,2470.287,2021-9-12T07:45:18Z
2021-09-12T05:47:01Z,42.805,6.029,13.3012,4.60059,2470.297,2021-9-12T07:48:21Z
2021-09-12T05:50:04Z,42.805,6.029,13.3009,4.60043,2470.297,2021-9-12T07:51:25Z
2021-09-12T05:53:07Z,42.805,6.029,13.3008,4.60062,2470.32,2021-9-12T07:54:28Z
2021-09-12T05:56:10Z,42.805,6.029,13.3010,4.60054,2470.297,2021-9-12T07:57:31Z
2021-09-12T05:59:13Z,42.805,6.029,13.3011,4.60068,2470.334,2021-9-12T08:00:34Z
2021-09-12T06:02:16Z,42.805,6.029,13.3010,4.60062,2470.32,2021-9-12T08:03:37Z
2021-09-12T06:05:19Z,42.805,6.029,13.3015,4.60070,2470.297,2021-9-12T08:06:40Z
2021-09-12T06:08:23Z,42.805,6.029,13.3015,4.60077,2470.31,2021-9-12T08:09:43Z
2021-09-12T06:11:26Z,42.805,6.029,13.3006,4.60070,2470.334,2021-9-12T08:12:46Z
2021-09-12T06:14:29Z,42.805,6.029,13.3012,4.60080,2470.357,2021-9-12T08:15:50Z
2021-09-12T06:17:32Z,42.805,6.029,13.3015,4.60060,2470.31,2021-9-12T08:18:53Z
2021-09-12T06:20:35Z,42.805,6.029,13.3008,4.60064,2470.38,2021-9-12T08:21:56Z
2021-09-12T06:23:38Z,42.805,6.029,13.3014,4.60044,2470.32,2021-9-12T08:24:59Z
2021-09-12T06:26:41Z,42.805,6.029,13.3012,4.60058,2470.334,2021-9-12T08:28:02Z
2021-09-12T06:29:44Z,42.805,6.029,13.3019,4.60053,2470.32,2021-9-12T08:31:05Z
2021-09-12T06:32:47Z,42.805,6.029,13.3012,4.60052,2470.297,2021-9-12T08:34:08Z
2021-09-12T06:35:51Z,42.805,6.029,13.3012,4.60065,2470.32,2021-9-12T08:37:11Z
2021-09-12T06:38:54Z,42.805,6.029,13.3015,4.60049,2470.334,2021-9-12T08:40:15Z
2021-09-12T06:41:57Z,42.805,6.029,13.3013,4.60051,2470.32,2021-9-12T08:43:18Z
2021-09-12T06:45:00Z,42.805,6.029,13.3011,4.60054,2470.343,2021-9-12T08:46:21Z
2021-09-12T06:48:03Z,42.805,6.029,13.3009,4.60058,2470.357,2021-9-12T08:49:24Z
2021-09-12T06:51:06Z,42.805,6.029,13.3012,4.60049,2470.334,2021-9-12T08:52:27Z
2021-09-12T06:54:09Z,42.805,6.029,13.3009,4.60050,2470.343,2021-9-12T08:55:30Z
2021-09-12T06:57:12Z,42.805,6.029,13.3012,4.60058,2470.343,2021-9-12T08:58:33Z
2021-09-12T07:00:16Z,42.805,6.029,13.3008,4.60066,2470.357,2021-9-12T09:01:36Z
2021-09-12T07:03:19Z,42.805,6.029,13.3004,4.60062,2470.357,2021-9-12T09:04:40Z
2021-09-12T07:06:22Z,42.805,6.029,13.3006,4.60041,2470.334,2021-9-12T09:07:43Z
2021-09-12T07:09:25Z,42.805,6.029,13.3014,4.60067,2470.357,2021-9-12T09:10:46Z
2021-09-12T07:12:28Z,42.805,6.029,13.3010,4.60084,2470.366,2021-9-12T09:13:49Z
2021-09-12T07:15:31Z,42.805,6.029,13.3016,4.60052,2470.366,2021-9-12T09:16:52Z
2021-09-12T07:18:34Z,42.805,6.029,13.3009,4.60054,2470.343,2021-9-12T09:19:55Z
2021-09-12T07:21:37Z,42.805,6.029,13.3006,4.60052,2470.357,2021-9-12T09:22:58Z
2021-09-12T07:24:41Z,42.805,6.029,13.3011,4.60070,2470.334,2021-9-12T09:26:01Z
2021-09-12T07:27:44Z,42.805,6.029,13.3013,4.60056,2470.427,2021-9-12T09:29:04Z
2021-09-12T07:30:47Z,42.805,6.029,13.3019,4.60074,2470.366,2021-9-12T09:32:08Z
2021-09-12T07:33:50Z,42.805,6.029,13.3018,4.60061,2470.413,2021-9-12T09:35:11Z
2021-09-12T07:36:53Z,42.805,6.029,13.3017,4.60059,2470.39,2021-9-12T09:38:14Z
2021-09-12T07:39:56Z,42.805,6.029,13.3011,4.60050,2470.413,2021-9-12T09:41:17Z
2021-09-12T07:42:59Z,42.805,6.029,13.3009,4.60052,2470.39,2021-9-12T09:44:20Z
2021-09-12T07:46:02Z,42.805,6.029,13.3012,4.60057,2470.38,2021-9-12T09:47:23Z
2021-09-12T07:49:06Z,42.805,6.029,13.3014,4.60047,2470.413,2021-9-12T09:50:26Z
2021-09-12T07:52:09Z,42.805,6.029,13.3009,4.60044,2470.39,2021-9-12T09:53:30Z
2021-09-12T07:55:12Z,42.805,6.029,13.3011,4.60053,2470.413,2021-9-12T09:56:33Z
2021-09-12T07:58:15Z,42.805,6.029,13.3008,4.60034,2470.39,2021-9-12T09:59:36Z
2021-09-12T08:01:18Z,42.805,6.029,13.3013,4.60063,2470.404,2021-9-12T10:02:39Z
2021-09-12T08:04:21Z,42.805,6.029,13.3006,4.60039,2470.427,2021-9-12T10:05:42Z
2021-09-12T08:07:24Z,42.805,6.029,13.3009,4.60051,2470.413,2021-9-12T10:08:45Z
2021-09-12T08:10:27Z,42.805,6.029,13.3008,4.60062,2470.413,2021-9-12T10:11:48Z
2021-09-12T08:13:31Z,42.805,6.029,13.3006,4.60040,2470.437,2021-9-12T10:14:51Z
2021-09-12T08:16:34Z,42.805,6.029,13.3014,4.60054,2470.437,2021-9-12T10:17:54Z
2021-09-12T08:19:37Z,42.805,6.029,13.3009,4.60049,2470.45,2021-9-12T10:20:58Z
2021-09-12T08:22:40Z,42.805,6.029,13.3015,4.60061,2470.427,2021-9-12T10:24:01Z
2021-09-12T08:25:43Z,42.805,6.029,13.3011,4.60054,2470.413,2021-9-12T10:27:04Z
2021-09-12T08:28:46Z,42.805,6.029,13.3012,4.60049,2470.413,2021-9-12T10:30:07Z
2021-09-12T08:31:49Z,42.805,6.029,13.3002,4.60053,2470.437,2021-9-12T10:33:10Z
2021-09-12T08:34:52Z,42.805,6.029,13.3014,4.60045,2470.437,2021-9-12T10:36:13Z
2021-09-12T08:37:56Z,42.805,6.029,13.3011,4.60038,2470.427,2021-9-12T10:39:16Z
2021-09-12T08:40:59Z,42.805,6.029,13.3004,4.60044,2470.437,2021-9-12T10:42:20Z
2021-09-12T08:44:02Z,42.805,6.029,13.3007,4.60040,2470.437,2021-9-12T10:45:23Z
2021-09-12T08:47:05Z,42.805,6.029,13.3009,4.60041,2470.437,2021-9-12T10:48:26Z
2021-09-12T08:50:08Z,42.805,6.029,13.3000,4.60053,2470.483,2021-9-12T10:51:29Z
2021-09-12T08:53:11Z,42.805,6.029,13.3005,4.60038,2470.427,2021-9-12T10:54:32Z
2021-09-12T08:56:14Z,42.805,6.029,13.3007,4.60046,2470.46,2021-9-12T10:57:35Z
2021-09-12T08:59:17Z,42.805,6.029,13.3008,4.60052,2470.474,2021-9-12T11:00:38Z
2021-09-12T09:02:21Z,42.805,6.029,13.3004,4.60039,2470.474,2021-9-12T11:03:41Z
2021-09-12T09:05:24Z,42.805,6.029,13.3007,4.60041,2470.46,2021-9-12T11:06:45Z
2021-09-12T09:08:27Z,42.805,6.029,13.3009,4.60040,2470.46,2021-9-12T11:09:48Z
2021-09-12T09:11:30Z,42.805,6.029,13.3009,4.60064,2470.474,2021-9-12T11:12:51Z
2021-09-12T09:14:33Z,42.805,6.029,13.3009,4.60049,2470.52,2021-9-12T11:15:54Z
2021-09-12T09:17:36Z,42.805,6.029,13.3004,4.60038,2470.45,2021-9-12T11:18:57Z
2021-09-12T09:20:39Z,42.805,6.029,13.3004,4.60039,2470.483,2021-9-12T11:22:00Z
2021-09-12T09:23:42Z,42.805,6.029,13.3011,4.60050,2470.483,2021-9-12T11:25:03Z
2021-09-12T09:26:46Z,42.805,6.029,13.3000,4.60051,2470.483,2021-9-12T11:28:06Z
2021-09-12T09:29:49Z,42.805,6.029,13.3006,4.60046,2470.46,2021-9-12T11:31:10Z
2021-09-12T09:32:52Z,42.805,6.029,13.3000,4.60048,2470.427,2021-9-12T11:34:13Z
2021-09-12T09:35:55Z,42.805,6.029,13.2998,4.60031,2470.483,2021-9-12T11:37:16Z
2021-09-12T09:38:58Z,42.805,6.029,13.3008,4.60037,2470.46,2021-9-12T11:40:19Z
2021-09-12T09:42:01Z,42.805,6.029,13.3002,4.60044,2470.483,2021-9-12T11:43:22Z
2021-09-12T09:45:04Z,42.805,6.029,13.3001,4.60041,2470.483,2021-9-12T11:46:25Z
2021-09-12T09:48:08Z,42.805,6.029,13.3004,4.60054,2470.497,2021-9-12T11:49:28Z
2021-09-12T09:51:11Z,42.805,6.029,13.3003,4.60030,2470.483,2021-9-12T11:52:31Z
2021-09-12T09:54:14Z,42.805,6.029,13.3002,4.60063,2470.497,2021-9-12T11:55:35Z
2021-09-12T09:57:17Z,42.805,6.029,13.3009,4.60051,2470.507,2021-9-12T11:58:38Z
2021-09-12T10:00:20Z,42.805,6.029,13.3001,4.60052,2470.497,2021-9-12T12:01:41Z
2021-09-12T10:03:23Z,42.805,6.029,13.3004,4.60039,2470.483,2021-9-12T12:04:44Z
2021-09-12T10:06:26Z,42.805,6.029,13.3002,4.60035,2470.47,2021-9-12T12:07:47Z
2021-09-12T10:09:29Z,42.805,6.029,13.3013,4.60049,2470.507,2021-9-12T12:10:50Z
2021-09-12T10:12:33Z,42.805,6.029,13.3001,4.60035,2470.497,2021-9-12T12:13:53Z
2021-09-12T10:15:36Z,42.805,6.029,13.3000,4.60044,2470.483,2021-9-12T12:16:56Z
2021-09-12T10:18:39Z,42.805,6.029,13.3014,4.60045,2470.52,2021-9-12T12:20:00Z
2021-09-12T10:21:42Z,42.805,6.029,13.3009,4.60052,2470.52,2021-9-12T12:23:03Z
2021-09-12T10:24:45Z,42.805,6.029,13.3001,4.60029,2470.507,2021-9-12T12:26:06Z
2021-09-12T10:27:48Z,42.805,6.029,13.3006,4.60046,2470.483,2021-9-12T12:29:09Z
2021-09-12T10:30:51Z,42.805,6.029,13.3003,4.60052,2470.483,2021-9-12T12:32:12Z
2021-09-12T10:33:54Z,42.805,6.029,13.3004,4.60031,2470.483,2021-9-12T12:35:15Z
2021-09-12T10:36:58Z,42.805,6.029,13.3002,4.60040,2470.483,2021-9-12T12:38:18Z
2021-09-12T10:40:01Z,42.805,6.029,13.3006,4.60042,2470.483,2021-9-12T12:41:21Z
2021-09-12T10:43:04Z,42.805,6.029,13.3004,4.60039,2470.507,2021-9-12T12:44:25Z
2021-09-12T10:46:07Z,42.805,6.029,13.3000,4.60033,2470.483,2021-9-12T12:47:28Z
2021-09-12T10:49:10Z,42.805,6.029,13.3008,4.60036,2470.52,2021-9-12T12:50:31Z
2021-09-12T10:52:13Z,42.805,6.029,13.3004,4.60042,2470.493,2021-9-12T12:53:34Z
2021-09-12T10:55:16Z,42.805,6.029,13.3008,4.60045,2470.507,2021-9-12T12:56:37Z
2021-09-12T10:58:19Z,42.805,6.029,13.3003,4.60035,2470.497,2021-9-12T12:59:40Z
2021-09-12T11:01:23Z,42.805,6.029,13.3005,4.60028,2470.483,2021-9-12T13:02:43Z
2021-09-12T11:04:26Z,42.805,6.029,13.3004,4.60036,2470.507,2021-9-12T13:05:46Z
2021-09-12T11:07:29Z,42.805,6.029,13.3001,4.60032,2470.52,2021-9-12T13:08:50Z
2021-09-12T11:10:32Z,42.805,6.029,13.3004,4.60038,2470.53,2021-9-12T13:11:53Z
2021-09-12T11:13:35Z,42.805,6.029,13.3000,4.60036,2470.53,2021-9-12T13:14:56Z
2021-09-12T11:16:38Z,42.805,6.029,13.3006,4.60041,2470.52,2021-9-12T13:17:59Z
2021-09-12T11:19:41Z,42.805,6.029,13.3014,4.60052,2470.497,2021-9-12T13:21:02Z
2021-09-12T11:22:45Z,42.805,6.029,13.3005,4.60033,2470.507,2021-9-12T13:24:05Z
2021-09-12T11:25:48Z,42.805,6.029,13.3011,4.60039,2470.497,2021-9-12T13:27:08Z
2021-09-12T11:28:51Z,42.805,6.029,13.3006,4.60039,2470.474,2021-9-12T13:30:11Z
2021-09-12T11:31:54Z,42.805,6.029,13.3000,4.60024,2470.46,2021-9-12T13:33:15Z
2021-09-12T11:34:57Z,42.805,6.029,13.3001,4.60054,2470.52,2021-9-12T13:36:18Z
2021-09-12T11:38:00Z,42.805,6.029,13.3001,4.60045,2470.46,2021-9-12T13:39:21Z
2021-09-12T11:41:03Z,42.805,6.029,13.3004,4.60044,2470.497,2021-9-12T13:42:24Z
2021-09-12T11:44:06Z,42.805,6.029,13.3008,4.60042,2470.544,2021-9-12T13:45:27Z
2021-09-12T11:47:09Z,42.805,6.029,13.3006,4.60049,2470.507,2021-9-12T13:48:30Z
2021-09-12T11:50:13Z,42.805,6.029,13.3006,4.60052,2470.46,2021-9-12T13:51:33Z
2021-09-12T11:53:16Z,42.805,6.029,13.3006,4.60043,2470.46,2021-9-12T13:54:36Z
2021-09-12T11:56:19Z,42.805,6.029,13.3006,4.60049,2470.53,2021-9-12T13:57:40Z
2021-09-12T11:59:22Z,42.805,6.029,13.3008,4.60041,2470.497,2021-9-12T14:00:43Z
2021-09-12T12:02:25Z,42.805,6.029,13.3009,4.60039,2470.46,2021-9-12T14:03:46Z
2021-09-12T12:05:28Z,42.805,6.029,13.3003,4.60031,2470.483,2021-9-12T14:06:49Z
2021-09-12T12:08:31Z,42.805,6.029,13.3007,4.60039,2470.474,2021-9-12T14:09:52Z
2021-09-12T12:11:35Z,42.805,6.029,13.3004,4.60049,2470.52,2021-9-12T14:12:55Z
2021-09-12T12:14:38Z,42.805,6.029,13.2998,4.60039,2470.474,2021-9-12T14:15:58Z
2021-09-12T12:17:41Z,42.805,6.029,13.3006,4.60041,2470.46,2021-9-12T14:19:02Z
2021-09-12T12:20:44Z,42.805,6.029,13.3004,4.60044,2470.483,2021-9-12T14:22:05Z
2021-09-12T12:23:47Z,42.805,6.029,13.3011,4.60052,2470.474,2021-9-12T14:25:08Z
2021-09-12T12:26:50Z,42.805,6.029,13.3002,4.60027,2470.46,2021-9-12T14:28:11Z
2021-09-12T12:29:53Z,42.805,6.029,13.3003,4.60033,2470.474,2021-9-12T14:31:14Z
2021-09-12T12:32:56Z,42.805,6.029,13.3003,4.60039,2470.483,2021-9-12T14:34:17Z
2021-09-12T12:36:00Z,42.805,6.029,13.3006,4.60057,2470.507,2021-9-12T14:37:20Z
2021-09-12T12:39:03Z,42.805,6.029,13.3011,4.60062,2470.497,2021-9-12T14:40:23Z
2021-09-12T12:42:06Z,42.805,6.029,13.3005,4.60052,2470.497,2021-9-12T14:43:27Z
2021-09-12T12:45:09Z,42.805,6.029,13.3003,4.60038,2470.427,2021-9-12T14:46:30Z
2021-09-12T12:48:12Z,42.805,6.029,13.3007,4.60036,2470.483,2021-9-12T14:49:33Z
2021-09-12T12:51:15Z,42.805,6.029,13.3008,4.60036,2470.474,2021-9-12T14:52:36Z
2021-09-12T12:54:18Z,42.805,6.029,13.2998,4.60034,2470.46,2021-9-12T14:55:39Z
2021-09-12T12:57:21Z,42.805,6.029,13.3003,4.60052,2470.46,2021-9-12T14:58:42Z
2021-09-12T13:00:25Z,42.805,6.029,13.3009,4.60046,2470.46,2021-9-12T15:01:45Z
2021-09-12T13:03:28Z,42.805,6.029,13.3007,4.60046,2470.437,2021-9-12T15:04:48Z
2021-09-12T13:06:31Z,42.805,6.029,13.3008,4.60038,2470.413,2021-9-12T15:07:52Z
2021-09-12T13:09:34Z,42.805,6.029,13.3002,4.60029,2470.437,2021-9-12T15:10:55Z
2021-09-12T13:12:37Z,42.805,6.029,13.3004,4.60033,2470.474,2021-9-12T15:13:58Z
2021-09-12T13:15:40Z,42.805,6.029,13.3000,4.60029,2470.437,2021-9-12T15:17:01Z
2021-09-12T13:18:43Z,42.805,6.029,13.3004,4.60031,2470.45,2021-9-12T15:20:04Z
2021-09-12T13:21:46Z,42.805,6.029,13.3004,4.60039,2470.46,2021-9-12T15:23:07Z
2021-09-12T13:24:50Z,42.805,6.029,13.3006,4.60039,2470.45,2021-9-12T15:26:10Z
2021-09-12T13:27:53Z,42.805,6.029,13.3004,4.60045,2470.437,2021-9-12T15:29:13Z
2021-09-12T13:30:56Z,42.805,6.029,13.3001,4.60033,2470.45,2021-9-12T15:32:17Z
2021-09-12T13:33:59Z,42.805,6.029,13.3005,4.60033,2470.46,2021-9-12T15:35:20Z
2021-09-12T13:37:02Z,42.805,6.029,13.3000,4.60050,2470.437,2021-9-12T15:38:23Z
2021-09-12T13:40:05Z,42.805,6.029,13.3000,4.60031,2470.46,2021-9-12T15:41:26Z
2021-09-12T13:43:08Z,42.805,6.029,13.3006,4.60033,2470.46,2021-9-12T15:44:29Z
2021-09-12T13:46:11Z,42.805,6.029,13.3004,4.60034,2470.413,2021-9-12T15:47:32Z
2021-09-12T13:49:15Z,42.805,6.029,13.3007,4.60032,2470.45,2021-9-12T15:50:35Z
2021-09-12T13:52:18Z,42.805,6.029,13.3004,4.60033,2470.437,2021-9-12T15:53:38Z
2021-09-12T13:55:21Z,42.805,6.029,13.3002,4.60035,2470.45,2021-9-12T15:56:42Z
2021-09-12T13:58:24Z,42.805,6.029,13.3009,4.60034,2470.427,2021-9-12T15:59:45Z
2021-09-12T14:01:27Z,42.805,6.029,13.2997,4.60029,2470.427,2021-9-12T16:02:48Z
2021-09-12T14:04:30Z,42.805,6.029,13.3004,4.60037,2470.427,2021-9-12T16:05:51Z
2021-09-12T14:07:33Z,42.805,6.029,13.3005,4.60064,2470.437,2021-9-12T16:08:54Z
2021-09-12T14:10:36Z,42.805,6.029,13.3009,4.60049,2470.45,2021-9-12T16:11:57Z
2021-09-12T14:13:40Z,42.805,6.029,13.3005,4.60039,2470.413,2021-9-12T16:15:00Z
2021-09-12T14:16:43Z,42.805,6.029,13.3006,4.60054,2470.45,2021-9-12T16:18:03Z
2021-09-12T14:19:46Z,42.805,6.029,13.3009,4.60043,2470.427,2021-9-12T16:21:07Z
2021-09-12T14:22:49Z,42.805,6.029,13.3004,4.60043,2470.39,2021-9-12T16:24:10Z
2021-09-12T14:25:52Z,42.805,6.029,13.3006,4.60031,2470.46,2021-9-12T16:27:13Z
2021-09-12T14:28:55Z,42.805,6.029,13.2998,4.60025,2470.46,2021-9-12T16:30:16Z
2021-09-12T14:31:58Z,42.805,6.029,13.3004,4.60036,2470.497,2021-9-12T16:33:19Z
2021-09-12T14:35:01Z,42.805,6.029,13.3004,4.60035,2470.413,2021-9-12T16:36:22Z
2021-09-12T14:38:05Z,42.805,6.029,13.3001,4.60039,2470.437,2021-9-12T16:39:25Z
2021-09-12T14:41:08Z,42.805,6.029,13.3004,4.60031,2470.413,2021-9-12T16:42:28Z
2021-09-12T14:44:11Z,42.805,6.029,13.3000,4.60037,2470.474,2021-9-12T16:45:32Z
2021-09-12T14:47:14Z,42.805,6.029,13.3000,4.60028,2470.413,2021-9-12T16:48:35Z
2021-09-12T14:50:17Z,42.805,6.029,13.3004,4.60037,2470.39,2021-9-12T16:51:38Z
2021-09-12T14:53:20Z,42.805,6.029,13.3009,4.60046,2470.427,2021-9-12T16:54:41Z
2021-09-12T14:56:23Z,42.805,6.029,13.3007,4.60040,2470.413,2021-9-12T16:57:44Z
2021-09-12T14:59:27Z,42.805,6.029,13.3004,4.60050,2470.437,2021-9-12T17:00:47Z
2021-09-12T15:02:30Z,42.805,6.029,13.3006,4.60034,2470.404,2021-9-12T17:03:50Z
2021-09-12T15:05:33Z,42.805,6.029,13.3003,4.60031,2470.427,2021-9-12T17:06:54Z
2021-09-12T15:08:36Z,42.805,6.029,13.3006,4.60033,2470.404,2021-9-12T17:09:57Z
2021-09-12T15:11:39Z,42.805,6.029,13.3003,4.60044,2470.413,2021-9-12T17:13:00Z
2021-09-12T15:14:42Z,42.805,6.029,13.3002,4.60027,2470.39,2021-9-12T17:16:03Z